Погода в Амге

Россия / Республика Саха (Якутия)     60°53′49″N   131°59′13″E
темп.,
°C
ветер,
м/с
пор.,
м/с
влажн.,
%
обл.,
%
осадки,
мм/ч
давл.,
гПа
погр.,
м
18 июня, пт
пт1800:00+13всв1173100 0.0 100611
03:00+12всв2275100 0.0 100723
06:00+17вюв31360100 0.0 1007658
09:00+20вюв51142100 0.0 10061033
12:00+18вюв41051100 0.1 1008850
15:00+17вюв41057100 0.1 1008745
18:00+20вюв4753100 0.0 1008967
21:00+16в2567100 0.0 1009103
19 июня, сб
сб1900:00+14всв2470100 0.0 100985
03:00+12всв2171100 0.1 100918
06:00+16в285483 0.0 1009299
09:00+21вюв463993 0.0 1009793
12:00+25вюв453198 0.0 10081397
15:00+26юв453186 0.0 10081576
18:00+24вюв3544100 0.0 1008652
21:00+18вюв216799 0.0 100913
20 июня, вс
вс2000:00+15вюв117365 0.0 100910
03:00+13всв117558 0.0 100910
06:00+18в11615 0.0 1009133
09:00+24вюв11405 0.0 1009722
12:00+28юв11275 0.0 10071485
15:00+29зсз00244 0.0 10061983
18:00+28сз01345 0.0 10051544
21:00+20зюз115315 0.0 100611
21 июня, пн
пн2100:00+17зюз115772 0.0 100511
03:00+15зюз117251 0.0 100511
06:00+20зсз1268100 0.0 1005150
09:00+26сз24405 0.0 1004728
12:00+30сз342817 0.0 10022304
15:00+29сз3535100 0.0 10001244
18:00+29сз363614 0.0 10001038
21:00+21зсз226882 0.0 100043
22 июня, вт
вт2200:00+17сз117190 0.0 100011
03:00+16з117169 0.0 100111
06:00+19ю017472 0.6 100184
09:00+25в214931 0.6 1001752
12:00+28всв223811 0.0 10001846
15:00+26св254410 0.3 10001514
18:00+22вюв46701 0.3 1002539
21:00+16юв11949 1.6 100311